Weather in Shush'

Russia / Krasnoyarsk Krai     55°35′57″N   89°27′00″E
temp.,
°C
wind,
m/s
gust,
m/s
humid.,
%
clouds,
%
prec.,
mm/h
press.,
hPa
HPBL,
m
16 september, thu
thu1601:00+9ssw2296100 2.9 101436
04:00+9s119597 0.6 101210
07:00+9ssw229183 0.6 101217
10:00+13ssw128056 0.0 1012117
13:00+18wnw3551100 0.0 10111250
16:00+19nw3446100 0.0 10101700
19:00+13e1180100 0.6 101013
22:00+11s1185100 0.0 101012
17 september, fri
fri1701:00+11s2284100 0.1 100917
04:00+10sse238783 0.4 100940
07:00+9s3388100 0.4 100944
10:00+15s346519 0.0 1008205
13:00+20ssw343946 0.0 10071481
16:00+21wsw2438100 0.0 10061930
19:00+15s3359100 0.0 100623
22:00+13sse4561100 0.0 100471
18 september, sat
sat1801:00+11sse4961100 0.0 1002138
04:00+11sse51265100 0.0 1000208
07:00+11s51257100 0.0 998211
10:00+14wsw81567100 0.1 10031822
13:00+12w7115877 0.1 10081481
16:00+13wsw61151100 0.0 10091902
19:00+9wsw357642 0.1 101094
22:00+7s2287100 0.0 101229
19 september, sun
sun1901:00+6ssw338628 0.0 101256
04:00+6ssw3480100 0.0 101163
07:00+7s3573100 0.0 101196
10:00+12s375375 0.0 1009755
13:00+14ssw3642100 0.0 10071712
16:00+15wsw3644100 0.0 10051025
19:00+11se335797 0.0 100335
22:00+9sse4858100 0.0 1001137
20 september, mon
mon2001:00+9ssw3460100 0.0 99962
04:00+5wnw41095100 0.0 1001342
07:00+6w6128123 0.3 10041102
10:00+5wsw71375100 0.1 10081308
13:00+9wsw61044100 0.1 10081995
16:00+5w81278100 0.6 10111165
19:00+3wsw6117995 0.6 1013855
22:00+3wsw51079100 0.0 1014712